Change the Weather History Date:

Monday, December 30, 2013

  Actual Average Record
Temperature  
Mean Temperature 18 °F 25 °F  
Max Temperature 21 °F 32 °F 53 °F (2004)
Min Temperature 15 °F 19 °F -4 °F (1983)
Degree Days  
Heating Degree Days 47 40  
Month to date heating degree days 1150 1083  
Since 1 July heating degree days 2507 2410  
Cooling Degree Days 0 0  
Month to date cooling degree days 0 0  
Year to date cooling degree days 725 675  
Moisture  
Dew Point 10 °F    
Average Humidity 68    
Maximum Humidity 80    
Minimum Humidity 56    
Precipitation  
Precipitation T in 0.06 in 1.42 in (1971)
Month to date precipitation 1.46 1.92  
Year to date precipitation 39.43 35.68  
Sea Level Pressure  
Sea Level Pressure 30.19 in    
Wind  
Wind Speed 6 mph (WNW)    
Max Wind Speed 15 mph    
Max Gust Speed 20 mph    
Visibility 8 miles    
Events Snow    
T = Trace of Precipitation, MM = Missing Value Source: NWS Daily Summary

Daily Weather History Graph

Daily Weather History Graph

Search for Another Location

Airport or City:

Trip Planner

Search our weather history database for the weather conditions in past years. The results will help you decide how hot, cold, wet, or windy it might be!

Date:

Astronomy

Dec. 30, 2013 Rise Set
Actual Time 8:10 AM EST 5:19 PM EST
Civil Twilight 7:39 AM EST 5:50 PM EST
Nautical Twilight 7:03 AM EST 6:26 PM EST
Astronomical Twilight 6:29 AM EST 7:00 PM EST
Moon 5:58 AM EST (12/30) 3:52 PM EST (12/30)
Length of Visible Light 10h 11m
Length of Day
9h 08m
Waning Crescent, 5% of the Moon is Illuminated
Dec 30
Waning Crescent
Jan 1
New
Jan 7
First Quarter
Jan 15
Full
Jan 24
Last Quarter

Hourly Weather History & Observations

Time (EST) Temp. Windchill Dew Point Humidity Pressure Visibility Wind Dir Wind Speed Gust Speed Precip Events Conditions
12:06 AM 19.4 °F 6.6 °F 14.0 °F 80% 30.05 in 10.0 mi NNW 12.7 mph - 0.00 in   Overcast
12:53 AM 19.9 °F 7.3 °F 12.9 °F 74% 30.10 in 10.0 mi North 12.7 mph - 0.00 in   Overcast
1:53 AM 19.0 °F 8.2 °F 12.0 °F 74% 30.12 in 10.0 mi North 9.2 mph - N/A   Overcast
2:53 AM 19.0 °F 7.5 °F 10.9 °F 71% 30.15 in 10.0 mi NNW 10.4 mph - 0.00 in   Overcast
3:53 AM 19.0 °F 12.3 °F 10.9 °F 71% 30.17 in 10.0 mi NNW 4.6 mph - N/A   Overcast
4:53 AM 18.0 °F 9.8 °F 10.9 °F 74% 30.18 in 10.0 mi North 5.8 mph - N/A   Overcast
5:53 AM 18.0 °F 12.7 °F 12.0 °F 78% 30.18 in 10.0 mi NE 3.5 mph - N/A   Overcast
6:06 AM 17.6 °F - 12.2 °F 79% 30.15 in 6.0 mi Calm Calm - 0.00 in Snow Light Snow
6:53 AM 18.0 °F - 12.0 °F 78% 30.22 in 10.0 mi Calm Calm - 0.00 in   Overcast
7:16 AM 17.6 °F 12.3 °F 10.4 °F 73% 30.18 in 10.0 mi NNE 3.5 mph - N/A Snow Light Snow
7:51 AM 17.6 °F 10.7 °F 12.2 °F 79% 30.20 in 3.0 mi North 4.6 mph - 0.00 in Snow Light Snow
7:53 AM 18.0 °F 11.1 °F 12.0 °F 78% 30.25 in 3.0 mi North 4.6 mph - 0.00 in Snow Light Snow
8:09 AM 17.6 °F 12.3 °F 12.2 °F 79% 30.20 in 8.0 mi NNE 3.5 mph - 0.00 in   Overcast
8:53 AM 17.1 °F 8.7 °F 12.0 °F 81% 30.27 in 5.0 mi NNW 5.8 mph - 0.00 in Snow Light Snow
9:53 AM 17.1 °F - 10.0 °F 74% 30.28 in 7.0 mi Calm Calm - 0.00 in Snow Light Snow
10:53 AM 18.0 °F - 10.9 °F 74% 30.29 in 3.0 mi Calm Calm - 0.00 in Snow Light Snow
11:53 AM 18.0 °F - 12.0 °F 78% 30.28 in 2.0 mi Calm Calm - 0.00 in Snow Light Snow
12:53 PM 19.0 °F 9.0 °F 12.9 °F 77% 30.25 in 2.0 mi WSW 8.1 mph - 0.00 in Snow Light Snow
1:27 PM 19.4 °F 9.5 °F 10.4 °F 68% 30.19 in 8.0 mi WSW 8.1 mph - 0.00 in Snow Light Snow
1:53 PM 19.0 °F 10.0 °F 9.0 °F 65% 30.22 in 6.0 mi West 6.9 mph - 0.00 in Snow Light Snow
2:53 PM 19.0 °F 6.8 °F 8.1 °F 62% 30.22 in 9.0 mi West 11.5 mph - 0.00 in   Overcast
3:53 PM 19.0 °F 9.0 °F 7.0 °F 59% 30.21 in 10.0 mi West 8.1 mph - N/A   Mostly Cloudy
4:53 PM 18.0 °F 9.8 °F 8.1 °F 65% 30.22 in 10.0 mi West 5.8 mph - N/A   Overcast
5:53 PM 17.1 °F 7.6 °F 7.0 °F 65% 30.22 in 10.0 mi West 6.9 mph - N/A   Mostly Cloudy
6:53 PM 16.0 °F 8.8 °F 7.0 °F 68% 30.22 in 10.0 mi West 4.6 mph - N/A   Mostly Cloudy
7:53 PM 16.0 °F 7.4 °F 7.0 °F 68% 30.21 in 10.0 mi WSW 5.8 mph - N/A   Mostly Cloudy
8:01 PM 15.8 °F 8.6 °F 6.8 °F 68% 30.16 in 10.0 mi WSW 4.6 mph - N/A   Scattered Clouds
8:53 PM 15.1 °F 7.7 °F 7.0 °F 70% 30.20 in 10.0 mi SW 4.6 mph - N/A   Mostly Cloudy
9:53 PM 16.0 °F 6.3 °F 8.1 °F 71% 30.19 in 10.0 mi WSW 6.9 mph - N/A   Overcast
10:17 PM 15.8 °F 5.1 °F 8.6 °F 73% 30.12 in 10.0 mi SW 8.1 mph - N/A   Overcast
10:24 PM 15.8 °F 6.1 °F 8.6 °F 73% 30.12 in 10.0 mi SW 6.9 mph - N/A   Overcast
10:53 PM 16.0 °F 4.4 °F 9.0 °F 74% 30.17 in 4.0 mi SW 9.2 mph - 0.00 in Snow Light Snow
11:14 PM 15.8 °F 3.4 °F 10.4 °F 79% 30.12 in 2.5 mi SW 10.4 mph - 0.00 in Snow Light Snow
11:42 PM 15.8 °F 4.2 °F 10.4 °F 79% 30.12 in 4.0 mi SW 9.2 mph - 0.00 in Snow Light Snow
11:53 PM 15.1 °F 3.3 °F 10.0 °F 80% 30.17 in 2.5 mi SW 9.2 mph - 0.00 in Snow Light Snow